Regional Weather Roundup
Issued by NWS

Home | Current Version | Previous Version | Text Only | Print | Product List | Glossary On
Versions: 1 2 3 4 5 6 7 8 9 10 11 12 13 14 15 16 17 18 19 20 21 22 23 24 25 26 27 28 29 30 31 32 33 34 35 36 37 38 39 40 41 42 43 44 45 46 47 48 49 50
000
ASUS42 KTBW 211616
RWRFL
FLORIDA REGIONAL WEATHER ROUNDUP
NATIONAL WEATHER SERVICE TAMPA BAY RUSKIN FL
1100 AM EST TUE FEB 21 2017

NOTE: "FAIR" INDICATES FEW OR NO CLOUDS BELOW 12,000 FEET WITH NO
SIGNIFICANT WEATHER AND/OR OBSTRUCTIONS TO VISIBILITY.

FLZ001>010-012>015-112-114-115-211700-
PANHANDLE FLORIDA

CITY           SKY/WX    TMP DP  RH WIND       PRES   REMARKS
PENSACOLA      HVY RAIN  64  61  90 NW5       30.01R FOG
PENSACOLA NAS  HVY RAIN  63  61  93 CALM      30.01R FOG
MILTON NAS     LGT RAIN  62  61  96 N3        29.99
CRESTVIEW      LGT RAIN  64  63  96 VRB3      30.00F FOG
DUKE FIELD     LGT RAIN  64  63  96 SE7       29.99S
VALPARAISO     LGT RAIN  66  64  94 SE8       29.98F FOG
MARY ESTHER    LGT RAIN  64  61  88 NW13      29.97  FOG
TRI COUNTY     CLOUDY    67  60  78 SE9G16    30.01F
PANAMA CITY    CLOUDY    69  60  73 E12       29.99F
TYNDALL AFB    PTSUNNY   71  61  72 SE14      30.00F
APALACHICOLA   CLOUDY    70  67  90 SE9       30.04S

STATION/POSITION SKY/WX   TEMP    WIND        PRES    WAVE   SWELL
                          AIR SEA DIR/SP/G            HT/PER HT/PER
                          (F)     (DEG/KT/KT) (MB)    (FT/S) (FT/S)
30.1N   87.6W              63 68   50/ 10/ 10 1015.9R   3/ 5   2/ 5
28.8N   86.0W              72 70              1015.7F   4/ 5
PANAMA CITY BEAC           68     120/ 20/ 22 1015.3F
TOWER C                    67     150/ 18/ 20 1017.5F
28.5N   84.5W              71 70  160/ 14/ 16 1017.2R   2/ 4

$$
FLZ011-016>038-118-127-128-134-139-239-211700-
NORTH FLORIDA

CITY           SKY/WX    TMP DP  RH WIND       PRES   REMARKS
TALLAHASSEE    CLOUDY    69  62  78 SE8       30.06R
PERRY          CLOUDY    71  61  71 SE12      30.08F
CROSS CITY     CLOUDY    72  61  68 SE9       30.09F
LAKE CITY      FAIR      70  63  78 S8        30.12S
GAINESVILLE    CLOUDY    69  61  75 SE7       30.11S
WILLISTON      SUNNY     73  63  68 E8        30.10F
PALATKA        FAIR      72  64  78 SE7       30.12S
MAYPORT NAS    PTSUNNY   70  62  76 E5        30.12S
JACKSONVILLE   CLOUDY    72  62  71 SE8       30.11F
JAX NAS        CLOUDY    71  61  70 SE3       30.12S
FERNANDINA BEA FAIR      72  64  78 CALM      30.11F
ST AUGUSTINE   CLOUDY    72  62  71 SE8       30.12S

STATION/POSITION SKY/WX   TEMP    WIND        PRES    WAVE   SWELL
                          AIR SEA DIR/SP/G            HT/PER HT/PER
                          (F)     (DEG/KT/KT) (MB)    (FT/S) (FT/S)
SHELL POINT      NOT AVBL
KEATON BEACH               70     120/  9/ 12 1018.2F
CEDAR KEY                  67     130/ 11/ 13 1019.5R
FERNANDINA                 71 67  110/  5/  6 1020.6F
30.7N   81.3W                 64                N/A     1/ 4
MAYPORT                    70 66  120/  4/  7 1020.2R
31.4N   80.9W              64 62   50/  8/  8 1020.3    1/ 4   2/ 4
ST AUGUSTINE               67 67  120/  4/  4 1020.8R

$$
FLZ040-043>046-052-053-057-058-063-144-211700-
INTERIOR CENTRAL FLORIDA

CITY           SKY/WX    TMP DP  RH WIND       PRES   REMARKS
OCALA          SUNNY     70  61  73 SE7       30.11F
THE VILLAGES     N/A     73  72  94 SE9G16    30.02S
LEESBURG       PTSUNNY   73  59  61 SE8       30.13S
SANFORD        CLOUDY    73  61  65 SE7       30.12S
ORLANDO EXEC   CLOUDY    74  59  59 SE7       30.12R
ORLANDO INTL   CLOUDY    74  59  59 VRB7      30.12S
KISSIMMEE      CLOUDY    73  61  65 SE7       30.13R
WINTER HAVEN   CLOUDY    73  58  59 SE9       30.12F
LAKELAND       SUNNY     73  61  64 SE14      30.11F
BARTOW         PTSUNNY   72  59  64 SE9       30.12S
OKEECHOBEE     MOSUNNY   73  59  60 E6        30.12S

$$
FLZ041-047-054-059-064-141-147-211700-
EAST CENTRAL FLORIDA

CITY           SKY/WX    TMP DP  RH WIND       PRES   REMARKS
ORMOND BEACH   MOSUNNY   73  64  73 SE6       30.12S
DAYTONA BEACH  NOT AVBL
DELAND         CLOUDY    73  63  68 SE7       30.11F
NEW SMYRNA BEA MOSUNNY   73  64  73 E5        30.12
JFK SPACE CTR  CLOUDY    77  63  61 E9        30.10F
TITUSVILLE     PTSUNNY   72  66  83 E6        30.12F
CAPE CANAVERAL CLOUDY    77  62  59 E10       30.10F
PATRICK AFB    CLOUDY    74  65  72 E7        30.10F
MELBOURNE      CLOUDY    75  63  66 E9        30.10F
VERO BEACH     PTSUNNY   76  62  62 E9        30.11F
FT PIERCE      PTSUNNY   77  61  57 E14       30.10F
STUART         MOSUNNY   81  59  47 E14       30.12F

STATION/POSITION SKY/WX   TEMP    WIND        PRES    WAVE   SWELL
                          AIR SEA DIR/SP/G            HT/PER HT/PER
                          (F)     (DEG/KT/KT) (MB)    (FT/S) (FT/S)
TRIDENT PIER               75 71   70/  6/  9 1020.7F
28.4N   80.5W                 71                N/A     1/ 6
27.5N   80.2W                 72                N/A     2/ 6

$$
FLZ050-056-061-142-242-148-248-149-249-151-251-155-255-
160-260-211700-
WEST CENTRAL FLORIDA

CITY           SKY/WX    TMP DP  RH WIND       PRES   REMARKS
CRYSTAL RIVER  FAIR      72  61  68 SE6       30.09F
INVERNESS      FAIR      72  64  78 SE10      30.11S
BROOKSVILLE    MOSUNNY   72  60  66 SE10      30.10F
CLEARWATER AIR FAIR      72  61  68 E10       30.09F
ST PETE CLEARW PTSUNNY   73  59  61 SE10      30.09F
TAMPA INTL     CLOUDY    73  59  61 SE10G18   30.09F
TAMPA EXEC     CLOUDY    75  61  60 SE8       30.10F
PLANT CITY     CLOUDY    75  63  64 E9        30.12F
MACDILL AFB    CLOUDY    73  64  73 SE12      30.09S
PETER O KNIGHT PTSUNNY   77  63  61 SE8       30.10S
ST PETERSBURG  PTSUNNY   71  62  73 SE12      30.07F
SARASOTA       PTSUNNY   74  59  59 SE10      30.08S
VENICE         FAIR      73  63  68 SE12      30.11R

STATION/POSITION SKY/WX   TEMP    WIND        PRES    WAVE   SWELL
                          AIR SEA DIR/SP/G            HT/PER HT/PER
                          (F)     (DEG/KT/KT) (MB)    (FT/S) (FT/S)
27.3N   84.2W                 71                N/A     3/ 4
CLEARWATER BEACH           72 75  130/  8/ 11 1018.8F
MIDDLE TAMPA BAY           70     150/ 10/ 14 1019.5R
VENICE                     72 69  130/  7/  9 1018.8F

$$
FLZ066-069-070-075>078-162-262-165-265-211700-
SOUTHWEST FLORIDA AND KEYS

CITY           SKY/WX    TMP DP  RH WIND       PRES   REMARKS
PUNTA GORDA    CLOUDY    75  60  59 SE14      30.12F
FT MYERS       CLOUDY    77  60  55 SE12      30.10F
SOUTHWEST INTL CLOUDY    76  58  53 E12       30.10F
NAPLES         CLOUDY    76  60  57 E8        30.10F
MARCO ISLAND   CLOUDY    75  61  60 E7        30.11S
MARATHON       PTSUNNY   78  63  59 NE12      30.08F
KEY WEST NAS   CLOUDY    76  63  64 E13       30.09S
KEY WEST INTL  CLOUDY    77  64  64 E9        30.10R

STATION/POSITION SKY/WX   TEMP    WIND        PRES    WAVE   SWELL
                          AIR SEA DIR/SP/G            HT/PER HT/PER
                          (F)     (DEG/KT/KT) (MB)    (FT/S) (FT/S)
NAPLES                        72              1019.2F
26.0N   85.6W              75 75  130/ 17/ 19 1017.1F   3/ 4
DRY TORTUGAS               74     100/ 14/ 15 1018.7F
SAND KEY                   74      80/ 12/ 14 1019.4R
LONG KEY                   72 76   10/  8/  9 1019.3R

$$
FLZ067-068-071>074-168-172>174-211700-
SOUTHEAST FLORIDA

CITY           SKY/WX    TMP DP  RH WIND       PRES   REMARKS
W PALM BEACH   PTSUNNY   76  58  53 E14       30.11F
BOCA RATON     PTSUNNY   77  59  53 E12       30.11R
FT LAUDER-EXEC CLOUDY    79  56  45 E10       30.09F
FT LAUDERDALE  CLOUDY    76  59  55 E13       30.09S
POMPANO BEACH  CLOUDY    78  58  49 E13       30.10S
PEMBROKE PINES CLOUDY    76  60  57 E13       30.11S
OPA LOCKA      CLOUDY    77  61  57 NE13      30.10F
MIAMI          CLOUDY    73  61  65 E13       30.09F
WEST KENDALL   CLOUDY    79  62  56 E9        30.09F
HOMESTEAD      PTSUNNY   76  64  65 E10       30.09S

STATION/POSITION SKY/WX   TEMP    WIND        PRES    WAVE   SWELL
                          AIR SEA DIR/SP/G            HT/PER HT/PER
                          (F)     (DEG/KT/KT) (MB)    (FT/S) (FT/S)
PORT EVERGLADES            75      80/  8/ 12 1019.3R
VIRGINIA KEY               74 80   90/ 11/ 13 1019.4S
LAKE WORTH                        100/ 15/ 16   N/A
FOWEY ROCKS                74 76   60/ 12/ 14 1019.7S

$$




USA.gov is the U.S. government's official web portal to all federal, state and local government web resources and services.